{"data":{"norad_id":44233,"epoch":"2026-05-25T03:27:59.645376Z","epoch_age_seconds":72625,"freshness":"FRESH","line1":"1 44233U 19028A   26145.14444034  .00001891  00000+0  14942-3 0  9999","line2":"2 44233  36.9956 130.7498 0005623 220.3074 139.7252 15.01523551384363","mean_motion":15.01523551,"eccentricity":0.0005623,"inclination_deg":36.9956,"raan_deg":130.7498,"arg_perigee_deg":220.3074,"mean_anomaly_deg":139.7252,"bstar":0.00014942,"rev_number":38436,"period_min":95.902591673702,"perigee_km":558.29505570846,"apogee_km":566.10015600621,"semimajor_km":6940.3346058573,"source":"CELESTRAK","updated_at":"2026-05-25T13:37:55.963870Z"}}